period_start,C,m1,H,J0,J1,J2,J3,J4,J5,JA,JB,JC,JD,JJ,JK,JN,#
2016-09-02 00:00:38,0.06,1.25,0.00,27.71,30.98,33.49,14.37,47.10,1026.44,2019.99,3025.57,2767.20,3136.47,599.92,592.26,19.18,0000 0000 0000 0000 000000
2016-09-02 00:05:39,0.02,1.25,0.00,27.73,31.00,33.51,14.32,47.06,1026.40,2019.95,3024.82,2766.78,3135.85,600.13,592.43,19.23,0000 0000 0000 0000 000000
2016-09-02 00:10:40,0.04,1.26,0.00,27.75,31.02,33.51,14.26,47.08,1026.40,2019.91,3023.97,2766.04,3135.05,599.95,592.25,19.28,0000 0000 0000 0000 000000
2016-09-02 00:15:42,0.02,1.26,0.00,27.78,31.04,33.52,14.36,47.05,1026.40,2019.68,3023.09,2765.43,3134.57,599.96,592.21,19.33,0000 0000 0000 0000 000000
2016-09-02 00:20:43,-0.00,1.26,0.00,27.81,31.06,33.53,14.30,47.06,1026.39,2019.31,3022.17,2764.90,3133.90,600.02,592.24,19.38,0000 0000 0000 0000 000000
2016-09-02 00:25:45,0.05,1.26,0.00,27.83,31.08,33.54,14.31,47.13,1026.39,2019.12,3021.26,2764.12,3133.08,599.76,591.89,19.43,0000 0000 0000 0000 000000
2016-09-02 00:30:46,0.04,1.26,0.00,27.86,31.11,33.56,14.37,47.10,1026.38,2019.10,3020.47,2763.70,3132.49,600.14,592.13,19.48,0000 0000 0000 0000 000000
2016-09-02 00:35:47,0.03,1.26,0.00,27.87,31.12,33.57,14.32,47.16,1026.38,2019.02,3019.55,2763.01,3131.78,599.88,591.93,19.53,0000 0000 0000 0000 000000
2016-09-02 00:40:49,0.05,1.27,0.00,27.90,31.15,33.57,14.31,47.10,1026.38,2019.00,3018.52,2762.23,3130.97,600.07,592.12,19.58,0000 0000 0000 0000 000000
2016-09-02 00:45:50,0.06,1.27,0.00,27.93,31.17,33.60,14.31,47.13,1026.38,2019.00,3017.49,2761.60,3130.10,600.04,591.92,19.63,0000 0000 0000 0000 000000
2016-09-02 00:50:51,0.03,1.27,0.00,27.96,31.20,33.62,14.29,47.10,1026.38,2019.00,3016.72,2760.98,3129.39,600.02,591.90,19.68,0000 0000 0000 0000 000000
2016-09-02 00:55:52,0.05,1.27,0.00,27.99,31.23,33.66,14.31,47.18,1026.37,2018.98,3015.76,2760.17,3128.68,599.81,591.70,19.73,0000 0000 0000 0000 000000
2016-09-02 01:00:54,0.02,1.28,0.00,28.02,31.25,33.68,14.28,47.23,1026.33,2018.98,3014.94,2759.79,3127.99,599.99,591.65,19.78,0000 0000 0000 0000 000000
2016-09-02 01:05:55,0.04,1.28,0.00,28.07,31.28,33.70,14.32,47.23,1026.24,2018.84,3013.88,2759.01,3127.12,599.91,591.43,19.83,0000 0000 0000 0000 000000
2016-09-02 01:10:56,0.03,1.28,0.00,28.09,31.31,33.70,14.28,47.10,1026.10,2018.56,3012.89,2758.18,3126.27,599.93,591.36,19.88,0000 0000 0000 0000 000000
2016-09-02 01:15:58,0.01,1.28,0.00,28.11,31.33,33.74,14.35,47.02,1026.17,2018.18,3011.95,2757.61,3125.50,600.03,591.32,19.93,0000 0000 0000 0000 000000
2016-09-02 01:20:59,0.03,1.28,0.00,28.16,31.36,33.76,14.34,47.17,1026.13,2018.03,3011.02,2756.96,3124.78,599.84,591.16,19.98,0000 0000 0000 0000 000000
2016-09-02 01:26:00,0.05,1.29,0.00,28.19,31.37,33.78,14.32,47.13,1025.98,2018.00,3010.09,2756.18,3123.99,599.71,590.88,20.03,0000 0000 0000 0000 000000
2016-09-02 01:31:01,0.06,1.29,0.00,28.24,31.40,33.79,14.31,47.16,1026.00,2018.00,3009.04,2755.51,3123.10,600.01,591.22,20.08,0000 0000 0000 0000 000000
2016-09-02 01:36:03,0.03,1.29,0.00,28.27,31.43,33.83,14.28,47.22,1025.98,2017.99,3008.10,2754.91,3122.26,599.84,590.77,20.13,0000 0000 0000 0000 000000
2016-09-02 01:41:04,0.06,1.29,0.00,28.29,31.46,33.84,14.30,47.13,1025.96,2017.96,3007.26,2754.10,3121.45,599.92,590.88,20.18,0000 0000 0000 0000 000000
2016-09-02 01:46:05,0.05,1.30,0.00,28.30,31.48,33.85,14.30,47.25,1025.96,2017.83,3006.15,2753.24,3120.63,599.93,590.89,20.23,0000 0000 0000 0000 000000
2016-09-02 01:51:06,0.05,1.30,0.00,28.35,31.51,33.89,14.26,47.02,1026.01,2017.52,3004.89,2752.49,3119.57,600.11,590.97,20.28,0000 0000 0000 0000 000000
2016-09-02 01:56:07,0.05,1.30,0.00,28.39,31.54,33.90,14.28,47.10,1025.97,2017.14,3002.82,2751.24,3118.15,599.79,590.53,20.33,0000 0000 0000 0000 000000
2016-09-02 02:01:09,0.06,1.30,0.00,28.43,31.56,33.91,14.27,47.13,1025.93,2017.03,3001.51,2750.50,3117.13,600.07,590.75,20.38,0000 0000 0000 0000 000000
2016-09-02 02:06:10,0.04,1.31,0.00,28.46,31.59,33.89,14.36,47.08,1025.91,2017.01,3000.42,2749.88,3116.28,600.50,591.10,20.43,0000 0000 0000 0000 000000
2016-09-02 02:11:11,0.05,1.31,0.00,28.51,31.62,33.93,14.39,47.26,1025.91,2017.00,2999.56,2749.06,3115.55,600.16,590.64,20.48,0000 0000 0000 0000 000000
2016-09-02 02:16:13,0.06,1.31,0.00,28.55,31.65,33.93,14.25,47.10,1025.91,2017.00,2998.41,2748.28,3114.61,599.63,590.35,20.53,0000 0000 0000 0000 000000
2016-09-02 02:21:13,0.05,1.31,0.00,28.61,31.68,33.96,14.27,47.15,1025.90,2016.99,2997.34,2747.62,3113.78,599.69,590.02,20.58,0000 0000 0000 0000 000000
2016-09-02 02:26:15,0.03,1.32,0.00,28.65,31.71,33.99,14.27,47.01,1025.91,2016.93,2996.30,2746.90,3112.93,599.91,590.13,20.63,0000 0000 0000 0000 000000
2016-09-02 02:31:16,0.04,1.32,0.00,28.70,31.73,34.02,14.25,47.13,1025.92,2016.70,2995.21,2746.07,3112.08,600.09,590.17,20.68,0000 0000 0000 0000 000000
2016-09-02 02:36:18,0.01,1.32,0.00,28.74,31.76,34.04,14.27,47.03,1025.92,2016.20,2994.26,2745.43,3111.27,600.06,590.02,20.73,0000 0000 0000 0000 000000
2016-09-02 02:41:19,0.06,1.32,0.00,28.77,31.79,34.07,14.28,46.96,1025.92,2016.06,2993.04,2744.60,3110.28,600.18,590.16,20.78,0000 0000 0000 0000 000000
2016-09-02 02:46:21,0.05,1.32,0.00,28.81,31.82,34.13,14.24,47.07,1025.91,2016.00,2991.80,2743.80,3109.26,599.83,589.76,20.83,0000 0000 0000 0000 000000
2016-09-02 02:51:22,0.05,1.33,0.00,28.87,31.86,34.12,14.27,46.99,1025.91,2016.00,2990.79,2743.02,3108.44,600.13,590.07,20.88,0000 0000 0000 0000 000000
2016-09-02 02:56:23,0.05,1.33,0.00,28.91,31.89,34.13,14.30,47.11,1025.91,2015.99,2989.88,2742.26,3107.68,600.13,589.88,20.93,0000 0000 0000 0000 000000
2016-09-02 03:01:25,0.04,1.33,0.00,28.96,31.93,34.19,14.19,47.02,1025.90,2015.99,2988.96,2741.66,3106.89,600.01,589.62,20.98,0000 0000 0000 0000 000000
2016-09-02 03:06:26,0.02,1.34,0.00,29.00,31.96,34.22,14.23,47.02,1025.91,2015.84,2987.98,2740.96,3106.02,599.95,589.50,21.03,0000 0000 0000 0000 000000
2016-09-02 03:11:27,0.00,1.34,0.00,29.06,32.00,34.26,14.22,47.11,1025.91,2015.30,2986.97,2740.14,3105.12,599.74,589.23,21.08,0000 0000 0000 0000 000000
2016-09-02 03:16:28,0.04,1.34,0.00,29.10,32.04,34.28,14.23,47.08,1025.90,2015.02,2986.02,2739.48,3104.28,600.14,589.52,21.13,0000 0000 0000 0000 000000
2016-09-02 03:21:29,0.03,1.34,0.00,29.15,32.08,34.33,14.18,47.01,1025.91,2015.00,2985.08,2738.92,3103.57,599.76,588.97,21.19,0000 0000 0000 0000 000000
2016-09-02 03:26:31,0.06,1.34,0.00,29.19,32.11,34.37,14.23,47.10,1025.90,2014.98,2984.17,2738.08,3102.67,599.77,589.06,21.24,0000 0000 0000 0000 000000
2016-09-02 03:31:32,0.04,1.34,0.00,29.24,32.15,34.40,14.22,47.17,1025.90,2014.85,2983.16,2737.38,3101.87,600.08,589.10,21.29,0000 0000 0000 0000 000000
2016-09-02 03:36:33,-0.01,1.34,0.00,29.29,32.19,34.44,14.27,47.07,1025.90,2014.32,2982.16,2736.76,3101.05,599.83,588.84,21.34,0000 0000 0000 0000 000000
2016-09-02 03:41:34,0.03,1.35,0.00,29.34,32.22,34.47,14.22,47.17,1025.90,2014.03,2981.23,2736.03,3100.28,599.80,588.67,21.39,0000 0000 0000 0000 000000
2016-09-02 03:46:36,0.06,1.35,0.00,29.38,32.26,34.51,14.17,47.19,1025.90,2014.00,2980.30,2735.35,3099.53,599.90,588.70,21.44,0000 0000 0000 0000 000000
2016-09-02 03:51:37,0.05,1.35,0.00,29.43,32.29,34.56,14.27,47.13,1025.90,2014.00,2979.33,2734.67,3098.72,599.86,588.51,21.49,0000 0000 0000 0000 000000
2016-09-02 03:56:39,0.03,1.35,0.00,29.47,32.33,34.59,14.25,47.07,1025.90,2013.97,2978.44,2734.01,3098.00,599.99,588.76,21.54,0000 0000 0000 0000 000000
2016-09-02 04:01:40,0.03,1.35,0.00,29.52,32.36,34.63,14.23,47.04,1025.90,2013.75,2977.52,2733.33,3097.15,600.03,588.51,21.59,0000 0000 0000 0000 000000
2016-09-02 04:06:41,-0.00,1.35,0.00,29.56,32.40,34.68,14.22,47.06,1025.90,2013.22,2976.57,2732.80,3096.40,599.99,588.59,21.64,0000 0000 0000 0000 000000
2016-09-02 04:11:43,0.03,1.36,0.00,29.60,32.43,34.72,14.21,47.01,1025.90,2013.04,2975.69,2732.04,3095.77,600.02,588.23,21.69,0000 0000 0000 0000 000000
2016-09-02 04:16:44,0.05,1.36,0.00,29.65,32.46,34.75,14.20,46.94,1025.90,2013.00,2974.77,2731.40,3094.99,599.83,588.13,21.74,0000 0000 0000 0000 000000
2016-09-02 04:21:45,0.04,1.36,0.00,29.67,32.50,34.78,14.22,46.98,1025.90,2013.00,2973.82,2730.84,3094.13,599.81,588.05,21.79,0000 0000 0000 0000 000000
2016-09-02 04:26:46,0.05,1.36,0.00,29.70,32.54,34.82,14.23,46.78,1025.90,2012.98,2972.79,2730.04,3093.35,600.04,588.17,21.84,0000 0000 0000 0000 000000
2016-09-02 04:31:48,0.04,1.37,0.00,29.74,32.57,34.87,14.21,46.78,1025.90,2012.81,2971.77,2729.32,3092.56,600.02,588.14,21.89,0000 0000 0000 0000 000000
2016-09-02 04:36:49,0.00,1.37,0.00,29.76,32.61,34.90,14.14,46.88,1025.90,2012.25,2970.73,2728.70,3091.71,599.77,587.82,21.94,0000 0000 0000 0000 000000
2016-09-02 04:41:51,0.02,1.37,0.00,29.80,32.64,34.93,14.28,46.94,1025.90,2012.05,2969.85,2728.01,3090.96,600.19,588.20,21.99,0000 0000 0000 0000 000000
2016-09-02 04:46:52,0.05,1.37,0.00,29.84,32.68,34.98,14.16,46.83,1025.90,2012.01,2968.98,2727.24,3090.12,599.68,587.68,22.04,0000 0000 0000 0000 000000
2016-09-02 04:51:53,0.05,1.37,0.00,29.87,32.71,35.01,14.14,46.74,1025.90,2012.00,2968.05,2726.61,3089.29,600.13,587.91,22.09,0000 0000 0000 0000 000000
2016-09-02 04:56:55,0.04,1.37,0.00,29.90,32.75,35.03,14.19,46.83,1025.90,2011.99,2967.19,2725.99,3088.60,600.30,588.06,22.14,0000 0000 0000 0000 000000
2016-09-02 05:01:56,0.04,1.38,0.00,29.95,32.79,35.07,14.18,46.79,1025.90,2011.90,2966.24,2725.22,3087.82,599.68,587.32,22.19,0000 0000 0000 0000 000000
2016-09-02 05:06:58,-0.02,1.38,0.00,29.99,32.83,35.13,14.16,46.85,1025.90,2011.34,2965.24,2724.64,3087.03,600.13,587.81,22.24,0000 0000 0000 0000 000000
2016-09-02 05:11:59,0.02,1.38,0.00,30.02,32.86,35.17,14.14,46.94,1025.90,2011.06,2964.36,2724.00,3086.22,600.05,587.60,22.29,0000 0000 0000 0000 000000
2016-09-02 05:17:00,0.06,1.38,0.00,30.05,32.91,35.20,14.15,46.88,1025.90,2011.00,2963.47,2723.20,3085.50,599.92,587.42,22.34,0000 0000 0000 0000 000000
2016-09-02 05:22:01,0.05,1.38,0.00,30.10,32.94,35.21,14.19,46.83,1025.90,2011.00,2962.53,2722.63,3084.71,599.99,587.47,22.39,0000 0000 0000 0000 000000
2016-09-02 05:27:03,0.03,1.39,0.00,30.15,32.98,35.26,14.14,46.88,1025.90,2010.99,2961.63,2721.95,3083.94,599.65,586.93,22.44,0000 0000 0000 0000 000000
2016-09-02 05:32:04,0.05,1.39,0.00,30.18,33.01,35.30,14.18,46.84,1025.90,2010.93,2960.65,2721.15,3083.10,600.21,587.45,22.49,0000 0000 0000 0000 000000
2016-09-02 05:37:05,0.00,1.39,0.00,30.20,33.05,35.34,14.14,46.77,1025.90,2010.43,2959.73,2720.55,3082.24,600.00,587.21,22.54,0000 0000 0000 0000 000000
2016-09-02 05:42:06,0.01,1.39,0.00,30.23,33.09,35.37,14.16,46.90,1025.91,2010.10,2958.85,2719.98,3081.56,599.97,587.17,22.59,0000 0000 0000 0000 000000
2016-09-02 05:47:08,0.05,1.39,0.00,30.28,33.13,35.42,14.20,46.97,1025.91,2010.01,2957.88,2719.14,3080.78,599.70,586.75,22.64,0000 0000 0000 0000 000000
2016-09-02 05:52:09,0.05,1.39,0.00,30.32,33.17,35.46,14.22,46.98,1025.91,2010.00,2956.91,2718.39,3079.96,599.80,586.68,22.69,0000 0000 0000 0000 000000
2016-09-02 05:57:10,0.04,1.40,0.00,30.36,33.21,35.47,14.08,46.83,1025.90,2009.97,2955.96,2717.83,3079.09,599.82,586.73,22.74,0000 0000 0000 0000 000000
2016-09-02 06:02:12,0.01,1.40,0.00,30.39,33.25,35.51,14.18,47.05,1025.90,2009.63,2954.94,2717.02,3078.19,600.22,587.01,22.79,0000 0000 0000 0000 000000
2016-09-02 06:07:13,0.03,1.40,0.00,30.43,33.29,35.55,14.18,46.96,1025.90,2009.20,2953.97,2716.24,3077.46,600.05,586.80,22.84,0000 0000 0000 0000 000000
2016-09-02 06:12:14,0.03,1.40,0.00,30.46,33.33,35.60,14.08,46.98,1025.90,2009.01,2953.04,2715.75,3076.73,599.79,586.49,22.89,0000 0000 0000 0000 000000
2016-09-02 06:17:15,0.04,1.40,0.00,30.50,33.36,35.64,14.02,46.82,1025.91,2009.00,2952.15,2715.03,3076.00,599.55,586.17,22.94,0000 0000 0000 0000 000000
2016-09-02 06:22:17,0.06,1.41,0.00,30.54,33.40,35.67,14.16,46.87,1025.91,2008.99,2951.27,2714.35,3075.19,600.11,586.64,22.99,0000 0000 0000 0000 000000
2016-09-02 06:27:18,0.02,1.41,0.00,30.57,33.44,35.71,14.13,46.87,1025.93,2008.83,2950.42,2713.76,3074.45,600.11,586.55,23.04,0000 0000 0000 0000 000000
2016-09-02 06:32:19,-0.01,1.41,0.00,30.63,33.48,35.75,14.17,46.82,1025.92,2008.28,2949.50,2713.04,3073.69,599.97,586.31,23.09,0000 0000 0000 0000 000000
2016-09-02 06:37:20,0.04,1.41,0.00,30.67,33.52,35.78,14.13,46.83,1025.91,2008.07,2948.71,2712.50,3072.99,599.94,586.26,23.14,0000 0000 0000 0000 000000
2016-09-02 06:42:22,0.03,1.41,0.00,30.69,33.56,35.83,14.16,47.06,1025.90,2008.00,2947.84,2711.92,3072.16,599.95,586.28,23.19,0000 0000 0000 0000 000000
2016-09-02 06:47:23,0.05,1.41,0.00,30.72,33.60,35.86,14.17,46.95,1025.91,2008.00,2946.97,2711.10,3071.42,600.32,586.56,23.24,0000 0000 0000 0000 000000
2016-09-02 06:52:25,0.04,1.42,0.00,30.78,33.63,35.89,14.19,46.88,1025.91,2007.96,2946.04,2710.51,3070.78,600.12,586.21,23.29,0000 0000 0000 0000 000000
2016-09-02 06:57:26,0.02,1.42,0.00,30.81,33.67,35.94,14.13,46.87,1025.91,2007.83,2945.10,2709.96,3070.04,599.96,585.97,23.34,0000 0000 0000 0000 000000
2016-09-02 07:02:27,0.00,1.42,0.00,30.84,33.71,35.97,14.09,46.77,1025.90,2007.28,2944.31,2709.18,3069.37,600.03,586.00,23.39,0000 0000 0000 0000 000000
2016-09-02 07:07:29,0.04,1.42,0.00,30.89,33.75,36.00,14.13,46.90,1025.90,2007.03,2943.54,2708.65,3068.60,600.03,585.91,23.44,0000 0000 0000 0000 000000
2016-09-02 07:12:30,0.03,1.42,0.00,30.93,33.79,36.04,14.20,46.89,1025.90,2007.00,2942.51,2707.97,3067.88,600.14,585.95,23.49,0000 0000 0000 0000 000000
2016-09-02 07:17:31,0.06,1.42,0.00,30.98,33.83,36.08,14.13,46.81,1025.90,2006.99,2941.51,2707.14,3066.96,600.18,585.93,23.54,0000 0000 0000 0000 000000
2016-09-02 07:22:32,0.04,1.43,0.00,31.02,33.86,36.12,14.18,46.93,1025.90,2006.86,2940.50,2706.42,3066.04,600.14,585.81,23.59,0000 0000 0000 0000 000000
2016-09-02 07:27:33,-0.01,1.43,0.00,31.05,33.90,36.15,14.21,46.96,1025.90,2006.31,2939.48,2705.69,3065.18,600.11,585.73,23.64,0000 0000 0000 0000 000000
2016-09-02 07:32:35,0.03,1.43,0.00,31.10,33.94,36.19,14.10,46.98,1025.91,2006.03,2938.49,2705.00,3064.27,599.95,585.41,23.69,0000 0000 0000 0000 000000
2016-09-02 07:37:36,0.06,1.43,0.00,31.17,33.98,36.22,14.13,46.96,1025.92,2006.00,2937.55,2704.24,3063.59,599.94,585.34,23.74,0000 0000 0000 0000 000000
2016-09-02 07:42:37,0.04,1.43,0.00,31.20,34.02,36.27,13.98,46.92,1025.96,2005.99,2936.61,2703.66,3062.81,599.77,585.19,23.79,0000 0000 0000 0000 000000
2016-09-02 07:47:39,0.04,1.44,0.00,31.24,34.06,36.31,14.09,47.02,1026.02,2005.90,2935.61,2702.84,3061.88,600.04,585.28,23.84,0000 0000 0000 0000 000000
2016-09-02 07:52:40,0.00,1.44,0.00,31.28,34.10,36.34,14.13,46.94,1026.01,2005.48,2934.53,2702.05,3061.03,600.10,585.32,23.89,0000 0000 0000 0000 000000
2016-09-02 07:57:42,0.03,1.44,0.00,31.33,34.14,36.38,14.11,46.89,1026.07,2005.07,2933.58,2701.37,3060.19,599.96,585.11,23.94,0000 0000 0000 0000 000000
2016-09-02 08:02:43,0.04,1.44,0.00,31.38,34.18,36.41,14.15,46.95,1026.07,2005.00,2932.67,2700.75,3059.36,600.20,585.35,23.99,0000 0000 0000 0000 000000
2016-09-02 08:07:44,0.05,1.44,0.00,31.43,34.22,36.45,14.10,46.85,1026.04,2005.00,2931.65,2700.00,3058.54,599.81,584.68,24.04,0000 0000 0000 0000 000000
2016-09-02 08:12:46,0.05,1.45,0.00,31.50,34.26,36.50,14.17,46.88,1025.99,2004.89,2930.65,2699.27,3057.65,600.27,585.05,24.09,0000 0000 0000 0000 000000
2016-09-02 08:17:47,0.03,1.45,0.00,31.56,34.31,36.53,14.16,46.88,1025.95,2004.28,2928.88,2698.02,3056.38,600.18,584.70,24.14,0000 0000 0000 0000 000000
2016-09-02 08:22:48,0.10,1.45,0.00,31.63,34.35,36.58,14.06,46.88,1025.92,2004.03,2926.76,2696.60,3054.71,600.06,584.50,24.19,0000 0000 0000 0000 000000
2016-09-02 08:27:50,0.10,1.46,0.00,31.68,34.39,36.65,14.12,46.88,1025.93,2004.00,2924.57,2695.18,3053.02,599.86,584.21,24.24,0000 0000 0000 0000 000000
2016-09-02 08:32:51,0.12,1.46,0.00,31.73,34.44,36.69,14.17,46.89,1025.94,2003.98,2922.57,2693.79,3051.49,600.73,584.92,24.29,0000 0000 0000 0000 000000
2016-09-02 08:37:53,0.19,1.47,0.00,31.79,34.48,36.72,14.16,46.92,1025.92,2003.88,2919.03,2691.43,3048.86,600.32,584.50,24.34,0000 0000 0000 0000 000000
2016-09-02 08:42:54,0.22,1.48,0.00,31.82,34.52,36.77,14.08,46.81,1025.94,2003.24,2913.90,2688.04,3045.06,600.25,584.35,24.39,0000 0000 0000 0000 000000
2016-09-02 08:47:55,0.30,1.50,0.00,31.84,34.56,36.85,14.11,46.89,1025.98,2003.02,2907.90,2684.09,3040.69,600.20,584.44,24.44,0000 0000 0000 0000 000000
2016-09-02 08:52:56,0.29,1.51,0.00,31.85,34.60,36.87,14.05,46.84,1026.09,2003.00,2902.63,2680.61,3036.79,599.71,583.85,24.49,0000 0000 0000 0000 000000
2016-09-02 08:57:58,0.23,1.52,0.00,31.88,34.64,36.91,14.07,46.79,1026.20,2002.96,2897.88,2677.45,3033.24,600.10,584.26,24.54,0000 0000 0000 0000 000000
2016-09-02 09:02:59,0.15,1.53,0.00,31.90,34.68,36.97,14.11,46.81,1026.25,2002.53,2894.05,2674.92,3030.40,599.90,584.03,24.59,0000 0000 0000 0000 000000
2016-09-02 09:08:00,0.19,1.54,0.00,31.93,34.72,37.00,14.09,46.73,1026.25,2002.10,2890.08,2672.27,3027.44,599.97,584.05,24.64,0000 0000 0000 0000 000000
2016-09-02 09:13:01,0.17,1.55,0.00,31.95,34.76,37.04,14.13,46.74,1026.33,2002.00,2886.54,2669.84,3024.76,600.02,584.09,24.69,0000 0000 0000 0000 000000
2016-09-02 09:18:02,0.11,1.56,0.00,31.98,34.79,37.10,14.08,46.77,1026.38,2002.00,2884.20,2668.34,3023.05,599.96,584.13,24.74,0000 0000 0000 0000 000000
2016-09-02 09:23:03,0.12,1.56,0.00,32.00,34.82,37.10,14.03,46.73,1026.38,2001.97,2881.95,2666.79,3021.32,599.82,583.81,24.79,0000 0000 0000 0000 000000
2016-09-02 09:28:04,0.13,1.57,0.00,32.02,34.86,37.15,14.04,46.72,1026.38,2001.83,2879.35,2665.01,3019.35,599.84,583.81,24.84,0000 0000 0000 0000 000000
2016-09-02 09:33:06,0.13,1.58,0.00,32.06,34.89,37.18,14.04,46.72,1026.38,2001.36,2876.32,2662.89,3016.96,599.68,583.58,24.89,0000 0000 0000 0000 000000
2016-09-02 09:38:07,0.14,1.58,0.00,32.07,34.92,37.21,14.17,46.80,1026.38,2001.06,2872.99,2660.58,3014.41,600.25,584.20,24.94,0000 0000 0000 0000 000000
2016-09-02 09:43:08,0.17,1.59,0.00,32.09,34.96,37.24,14.13,46.85,1026.38,2001.00,2869.80,2658.40,3011.98,600.18,584.03,24.99,0000 0000 0000 0000 000000
2016-09-02 09:48:10,0.19,1.60,0.00,32.12,34.99,37.27,14.11,46.87,1026.38,2001.00,2866.40,2656.14,3009.39,599.97,583.71,25.04,0000 0000 0000 0000 000000
2016-09-02 09:53:11,0.18,1.61,0.00,32.15,35.02,37.31,14.14,46.82,1026.38,2000.95,2862.99,2653.58,3006.77,599.99,583.67,25.09,0000 0000 0000 0000 000000
2016-09-02 09:58:13,0.21,1.62,0.00,32.19,35.05,37.33,14.09,46.74,1026.38,2000.78,2859.14,2650.82,3003.76,599.67,583.46,25.14,0000 0000 0000 0000 000000
2016-09-02 10:03:14,0.20,1.63,0.00,32.19,35.08,37.36,14.07,46.67,1026.38,2000.23,2854.84,2647.71,3000.30,600.06,583.73,25.20,0000 0000 0000 0000 000000
2016-09-02 10:08:15,0.28,1.64,0.00,32.21,35.11,37.38,14.12,46.77,1026.38,2000.05,2849.86,2644.07,2996.34,599.98,583.63,25.25,0000 0000 0000 0000 000000
2016-09-02 10:13:17,0.23,1.66,0.00,32.23,35.14,37.42,14.06,46.85,1026.38,2000.00,2845.40,2640.90,2992.77,599.77,583.36,25.30,0000 0000 0000 0000 000000
2016-09-02 10:18:18,0.22,1.67,0.00,32.25,35.17,37.44,14.04,46.79,1026.38,2000.00,2841.61,2638.18,2989.78,600.04,583.65,25.35,0000 0000 0000 0000 000000
2016-09-02 10:23:19,0.23,1.68,0.00,32.27,35.20,37.47,14.10,46.86,1026.39,1999.98,2837.50,2635.24,2986.50,600.25,583.80,25.40,0000 0000 0000 0000 000000
2016-09-02 10:28:21,0.14,1.69,0.00,32.28,35.23,37.50,14.11,46.72,1026.39,1999.76,2834.21,2632.88,2983.90,600.05,583.47,25.45,0000 0000 0000 0000 000000
2016-09-02 10:33:22,0.12,1.70,0.00,32.30,35.25,37.54,14.09,46.77,1026.41,1999.35,2831.46,2631.02,2981.74,600.14,583.60,25.50,0000 0000 0000 0000 000000
2016-09-02 10:38:23,0.15,1.70,0.00,32.30,35.27,37.57,14.06,46.71,1026.40,1999.06,2828.33,2628.86,2979.34,599.86,583.32,25.55,0000 0000 0000 0000 000000
2016-09-02 10:43:24,0.17,1.71,0.00,32.30,35.30,37.59,14.12,46.68,1026.40,1999.00,2825.25,2626.69,2976.96,600.23,583.62,25.60,0000 0000 0000 0000 000000
2016-09-02 10:48:26,0.18,1.72,0.00,32.29,35.31,37.64,14.04,46.62,1026.41,1999.00,2822.00,2624.44,2974.41,599.98,583.52,25.65,0000 0000 0000 0000 000000
2016-09-02 10:53:27,0.15,1.73,0.00,32.29,35.33,37.65,14.14,46.60,1026.41,1998.97,2819.18,2622.62,2972.14,600.03,583.50,25.70,0000 0000 0000 0000 000000
2016-09-02 10:58:28,0.11,1.74,0.00,32.28,35.35,37.70,14.07,46.53,1026.40,1998.85,2816.76,2620.95,2970.23,599.75,583.24,25.75,0000 0000 0000 0000 000000
2016-09-02 11:03:29,0.10,1.74,0.00,32.26,35.35,37.74,14.15,46.78,1026.40,1998.68,2814.48,2619.41,2968.46,600.14,583.64,25.80,0000 0000 0000 0000 000000
2016-09-02 11:08:30,0.10,1.75,0.00,32.26,35.37,37.75,14.12,46.62,1026.39,1998.47,2812.42,2617.99,2966.88,599.82,583.39,25.85,0000 0000 0000 0000 000000
2016-09-02 11:13:31,0.08,1.75,0.00,32.26,35.37,37.80,14.08,46.36,1026.39,1998.26,2810.64,2616.80,2965.54,599.97,583.39,25.90,0000 0000 0000 0000 000000
2016-09-02 11:18:32,0.08,1.76,0.00,32.25,35.38,37.84,14.04,46.31,1026.38,1998.19,2808.86,2615.71,2964.28,599.90,583.45,25.95,0000 0000 0000 0000 000000
2016-09-02 11:23:34,0.10,1.76,0.00,32.23,35.38,37.85,14.09,46.41,1026.38,1998.09,2806.97,2614.50,2962.89,600.18,583.75,26.00,0000 0000 0000 0000 000000
2016-09-02 11:28:35,0.10,1.77,0.00,32.21,35.38,37.87,14.18,46.24,1026.38,1998.14,2805.06,2613.30,2961.52,600.27,583.86,26.05,0000 0000 0000 0000 000000
2016-09-02 11:33:36,0.07,1.77,0.00,32.19,35.38,37.88,14.10,46.39,1026.38,1998.07,2803.51,2612.22,2960.34,599.99,583.66,26.10,0000 0000 0000 0000 000000
2016-09-02 11:38:37,0.07,1.78,0.00,32.18,35.39,37.90,14.07,46.27,1026.38,1998.03,2802.11,2611.28,2959.30,599.86,583.62,26.15,0000 0000 0000 0000 000000
2016-09-02 11:43:39,0.08,1.78,0.00,32.17,35.39,37.91,14.08,46.35,1026.38,1998.01,2800.58,2610.32,2958.12,600.19,583.88,26.20,0000 0000 0000 0000 000000
2016-09-02 11:48:40,0.08,1.78,0.00,32.15,35.38,37.96,14.13,46.49,1026.38,1998.01,2798.96,2609.29,2957.00,599.98,583.71,26.25,0000 0000 0000 0000 000000
2016-09-02 11:53:41,0.08,1.79,0.00,32.13,35.38,37.94,14.19,46.19,1026.38,1998.01,2797.43,2608.31,2955.81,599.82,583.52,26.30,0000 0000 0000 0000 000000
2016-09-02 11:58:42,0.09,1.79,0.00,32.12,35.38,37.97,14.14,46.23,1026.39,1998.00,2795.64,2607.26,2954.62,600.21,583.93,26.35,0000 0000 0000 0000 000000
2016-09-02 12:03:43,0.09,1.80,0.00,32.10,35.38,38.00,14.12,46.36,1026.39,1998.01,2794.00,2606.17,2953.45,600.13,583.96,26.40,0000 0000 0000 0000 000000
2016-09-02 12:08:45,0.12,1.80,0.00,32.10,35.37,38.03,14.07,46.33,1026.39,1998.02,2792.00,2604.85,2952.05,600.02,583.86,26.45,0000 0000 0000 0000 000000
2016-09-02 12:13:46,0.11,1.81,0.00,32.06,35.37,38.06,14.21,46.42,1026.39,1998.01,2789.95,2603.45,2950.38,600.18,584.04,26.50,0000 0000 0000 0000 000000
2016-09-02 12:18:47,0.09,1.81,0.00,32.04,35.37,38.06,14.16,46.60,1026.39,1998.03,2788.27,2602.29,2949.08,600.25,584.13,26.55,0000 0000 0000 0000 000000
2016-09-02 12:23:49,0.08,1.82,0.00,32.02,35.36,37.99,14.07,46.50,1026.39,1998.01,2786.68,2601.19,2947.95,600.00,583.98,26.60,0000 0000 0000 0000 000000
2016-09-02 12:28:50,0.07,1.82,0.00,32.00,35.35,38.04,14.01,46.48,1026.39,1998.03,2785.44,2600.37,2946.90,599.91,583.99,26.65,0000 0000 0000 0000 000000
2016-09-02 12:33:51,0.08,1.83,0.00,31.98,35.35,38.06,14.05,46.57,1026.38,1998.00,2784.06,2599.46,2945.77,599.72,583.97,26.70,0000 0000 0000 0000 000000
2016-09-02 12:38:52,0.09,1.83,0.00,31.94,35.35,38.04,14.10,46.63,1026.38,1998.01,2782.45,2598.39,2944.61,600.02,584.17,26.75,0000 0000 0000 0000 000000
2016-09-02 12:43:53,0.09,1.84,0.00,31.94,35.34,38.05,14.22,46.65,1026.38,1998.01,2780.78,2597.38,2943.55,600.19,584.32,26.80,0000 0000 0000 0000 000000
2016-09-02 12:48:55,0.08,1.84,0.00,31.91,35.33,38.05,14.17,46.58,1026.38,1998.02,2779.38,2596.28,2942.36,600.19,584.37,26.85,0000 0000 0000 0000 000000
2016-09-02 12:53:56,0.08,1.84,0.00,31.88,35.32,38.05,14.11,46.53,1026.38,1998.01,2777.96,2595.43,2941.36,599.95,584.19,26.90,0000 0000 0000 0000 000000